CAPE
21 13 3 1 6 1 3 0 3 0 0 0 4 12 3 0 0 0 0 0 0 0 0 0 0 0 0 0 0 0 0 0 0 0 0 0 0 0 0 0 0 0 0 0 0 0 0 0 0 0 0 0 0 0
21 20 6 2 2 2 1 1 11 0 0 0 1 7 8 4 0 0 0 0 0 0 0 0 0 0 0 0 0 0 0 0 0 0 0 0 0 0 0 0 0 0 0 0 0 0 0 0 0 0 0 0 0 0
14 25 18 2 1 4 1 1 17 3 0 0 1 3 13 5 1 0 0 0 0 0 0 0 0 0 0 0 0 0 0 0 0 0 0 0 0 0 0 0 0 0 0 0 0 0 0 0 0 0 0 0 0 0
6 11 29 13 1 4 1 0 3 2 0 0 3 3 12 11 5 0 0 0 0 0 0 0 0 0 0 0 0 0 0 0 0 0 0 0 0 0 0 0 0 0 0 0 0 0 0 0 0 0 0 0 0 0
0 6 9 21 8 0 0 0 3 2 1 0 1 3 10 15 1 0 0 0 0 0 0 0 0 0 0 0 0 0 0 0 0 0 0 0 0 0 0 0 0 0 0 0 0 0 0 0 0 0 0 0 0 0
0 0 0 12 17 4 0 0 0 4 2 8 1 3 8 13 0 0 1 0 0 0 0 0 0 0 0 0 0 0 0 0 0 0 0 0 0 0 0 0 0 0 0 0 0 0 0 0 0 0 0 0 0 0
3 0 0 0 13 15 0 0 0 1 4 2 1 0 12 2 0 0 0 0 0 0 0 0 0 0 0 0 0 0 0 0 0 0 0 0 0 0 0 0 0 0 0 0 0 0 0 0 0 0 0 0 0 0
13 1 0 0 1 9 12 0 0 0 1 2 1 6 19 4 1 0 0 0 0 0 0 0 0 0 0 0 0 0 0 0 0 0 0 0 0 0 0 0 0 0 0 0 0 0 0 0 0 0 0 0 0 0
17 1 0 1 3 3 10 12 0 0 0 2 2 7 2 6 0 0 0 0 0 0 0 0 0 0 0 0 0 0 0 0 0 0 0 0 0 0 0 0 0 0 0 0 0 0 0 0 0 0 0 0 0 0
12 13 0 0 1 0 0 9 2 0 0 0 0 10 4 0 0 0 0 0 1 0 0 0 0 0 0 0 0 0 0 0 0 0 0 0 0 0 0 0 0 0 0 0 0 0 0 0 0 0 0 0 0 0
9 12 2 0 0 0 0 8 9 1 1 0 0 0 1 1 0 4 1 0 0 0 0 0 0 0 0 0 0 0 0 0 0 0 0 0 0 0 0 0 0 0 0 0 0 0 0 0 0 0 0 0 0 0
1 13 0 0 0 0 0 6 11 0 1 1 0 3 0 1 1 0 0 0 0 0 0 0 0 0 0 0 0 0 0 0 0 0 0 0 0 0 0 0 0 0 0 0 0 0 0 0 0 0 0 0 0 0
8 8 0 0 0 1 0 0 13 9 1 0 0 0 0 0 0 0 0 0 0 0 1 0 0 0 0 0 0 0 0 0 0 0 0 0 0 0 0 0 0 0 0 0 0 0 0 0 0 0 0 0 0 0
6 10 2 0 0 3 0 0 11 8 3 0 0 0 0 0 0 0 0 0 0 0 0 0 0 0 0 0 0 0 0 0 0 0 0 0 0 0 0 0 0 0 0 0 0 0 0 0 0 0 0 0 0 0
41 24 10 2 0 3 0 0 9 9 0 0 0 0 0 0 0 0 0 0 0 2 0 0 0 0 0 0 0 0 0 0 0 0 0 0 0 0 0 0 0 0 0 0 0 0 0 0 0 0 0 0 0 0
5 12 0 0 0 2 0 13 1 3 0 1 0 0 0 0 0 0 0 0 1 1 0 0 0 0 0 0 0 0 0 0 0 0 0 0 0 0 0 0 0 0 0 0 0 0 0 0 0 0 0 0 0 0
14 0 0 0 12 0 9 1 0 0 0 0 0 0 0 0 0 0 0 0 1 1 0 0 0 0 0 0 0 0 0 0 0 0 0 0 0 0 0 0 0 0 0 0 0 0 0 0 0 0 0 0 0 0
0 0 0 0 0 11 5 0 0 0 0 0 0 0 0 0 0 0 0 0 0 0 0 0 0 0 0 0 0 0 0 0 0 0 0 0 0 0 0 0 0 0 0 0 0 0 0 0 0 0 0 0 0 0
0 0 17 15 0 0 1 0 0 0 0 0 0 0 0 0 0 0 0 0 0 0 0 0 0 0 0 0 0 0 0 0 0 0 0 0 0 0 0 0 0 0 0 0 0 0 0 0 0 0 0 0 0 0
23 0 6 11 0 0 0 0 0 0 0 0 0 0 0 0 0 0 0 0 0 6 1 0 0 0 0 0 0 0 0 0 0 0 0 0 0 0 0 0 0 0 0 0 0 0 0 0 0 0 0 0 0 0
33 6 16 0 0 0 0 0 0 0 0 0 0 0 0 0 0 0 0 0 0 1 0 0 0 0 0 0 0 0 0 0 0 0 0 0 0 0 0 0 0 0 0 0 0 0 0 0 0 0 0 0 0 0
0 0 0 0 0 0 0 0 0 0 0 0 0 0 0 0 0 0 0 0 0 0 0 0 0 0 0 0 0 0 0 0 0 0 0 0 0 0 0 0 0 0 0 0 0 0 0 0 0 0 0 0 0 0
0 0 0 0 0 0 0 0 0 0 0 0 0 0 0 0 0 0 0 0 0 0 0 0 0 0 0 0 0 0 0 0 0 0 0 0 0 0 0 0 0 0 0 0 0 0 0 0 0 0 0 0 0 0
0 0 0 0 0 0 0 0 0 0 0 0 0 0 0 0 0 0 0 0 0 0 0 0 0 0 0 0 0 0 0 0 0 0 0 0 0 0 0 0 0 0 0 0 0 0 0 0 0 0 0 0 0 0
1 0 0 0 0 0 0 0 0 0 0 0 0 0 0 0 0 0 0 0 0 0 0 0 0 0 0 0 0 0 0 0 0 0 0 0 0 0 0 0 0 0 0 0 0 0 0 0 0 0 0 0 0 0
0 0 0 0 0 0 0 0 0 0 0 0 0 0 0 0 0 0 0 0 0 0 0 0 0 0 0 0 0 0 0 0 0 0 0 0 0 0 0 0 0 0 0 0 0 0 0 0 0 0 0 0 0 0
0 0 0 0 0 0 0 0 0 0 0 0 0 0 0 0 0 0 0 0 0 0 0 0 0 0 0 0 0 0 0 0 0 0 0 0 0 0 0 0 0 0 0 0 0 0 0 0 0 0 0 0 0 0
0 0 0 0 0 0 0 0 0 0 0 0 0 0 0 0 0 0 0 0 0 0 0 0 0 0 0 0 0 0 0 0 0 0 0 0 0 0 0 0 0 0 0 0 0 0 0 0 0 0 0 0 0 0
0 0 0 0 0 0 0 0 0 0 0 0 0 0 0 0 0 0 0 0 0 0 0 0 0 0 0 0 0 0 0 0 0 0 0 0 0 0 0 0 0 0 0 0 0 0 0 0 0 0 0 0 0 0
0 0 0 0 0 0 0 0 0 0 0 0 0 0 0 0 0 0 0 0 0 0 0 0 0 0 0 0 0 0 0 0 0 0 0 0 0 0 0 0 0 0 0 0 0 0 0 0 0 0 0 0 0 0
0 0 0 0 0 0 0 0 0 0 0 0 0 0 0 0 0 0 0 0 0 0 0 0 0 0 0 0 0 0 0 0 0 0 0 0 0 0 0 0 0 0 0 0 0 0 0 0 0 0 0 0 0 0
0 0 0 0 0 0 0 0 0 0 0 0 0 0 0 0 0 0 0 0 0 0 0 0 0 0 0 0 0 0 0 0 0 0 0 0 0 0 0 0 0 0 0 0 0 0 0 0 0 0 0 0 0 0
0 0 0 0 0 0 0 0 0 0 0 0 0 0 0 0 0 0 0 0 0 0 0 0 0 0 0 0 0 0 0 0 0 0 0 0 0 0 0 0 0 0 0 0 0 0 0 0 0 0 0 0 0 0
CIN
0 0 0 0 0 0 0 0 0 0 0 -4 -6 -9 -18 -8 0 0 0 0 0 0 0 0 0 0 0 0 0 0 0 0 0 0 0 0 0 0 0 0 0 0 0 0 0 0 0 0 0 0 0 0 0 0
0 0 0 0 0 0 0 0 -1 0 0 0 -6 -6 -11 -18 0 0 0 0 0 0 0 0 0 0 0 0 0 0 0 0 0 0 0 0 0 0 0 0 0 0 0 0 0 0 0 0 0 0 0 0 0 0
0 0 0 0 0 0 0 0 -6 -25 0 -1 -5 -3 -7 -17 -25 0 0 0 0 0 0 0 0 0 0 0 0 0 0 0 0 0 0 0 0 0 0 0 0 0 0 0 0 0 0 0 0 0 0 0 0 0
-1 -2 0 0 0 0 0 0 0 0 -1 -2 -3 -5 -6 -9 -24 0 0 0 0 0 0 0 0 0 0 0 0 0 0 0 0 0 0 0 0 0 0 0 0 0 0 0 0 0 0 0 0 0 0 0 0 0
0 -6 -6 0 0 0 0 0 0 0 0 0 -3 -6 -6 -7 -15 0 0 0 0 0 0 0 0 0 0 0 0 0 0 0 0 0 0 0 0 0 0 0 0 0 0 0 0 0 0 0 0 0 0 0 0 0
0 0 -1 0 0 0 0 0 0 0 0 0 -8 -14 -3 -8 0 0 -4 0 0 0 0 0 0 0 0 0 0 0 0 0 0 0 0 0 0 0 0 0 0 0 0 0 0 0 0 0 0 0 0 0 0 0
0 0 0 0 -1 0 0 0 0 0 0 0 -1 -6 -1 -8 0 0 0 0 0 0 0 0 0 0 0 0 0 0 0 0 0 0 0 0 0 0 0 0 0 0 0 0 0 0 0 0 0 0 0 0 0 0
0 0 0 0 0 0 0 0 0 0 0 0 0 0 -3 -17 0 0 0 0 0 0 0 0 0 0 0 0 0 0 0 0 0 0 0 0 0 0 0 0 0 0 0 0 0 0 0 0 0 0 0 0 0 0
-2 0 0 0 0 0 0 0 0 0 0 0 0 -2 -3 -8 0 0 0 0 0 0 0 0 0 0 0 0 0 0 0 0 0 0 0 0 0 0 0 0 0 0 0 0 0 0 0 0 0 0 0 0 0 0
-3 0 0 0 0 0 0 0 -2 0 0 0 -3 -1 0 0 0 0 0 0 0 0 0 0 0 0 0 0 0 0 0 0 0 0 0 0 0 0 0 0 0 0 0 0 0 0 0 0 0 0 0 0 0 0
-2 -3 0 0 0 0 0 -2 -1 -5 -1 0 0 0 0 0 0 -1 0 0 0 0 0 0 0 0 0 0 0 0 0 0 0 0 0 0 0 0 0 0 0 0 0 0 0 0 0 0 0 0 0 0 0 0
-2 -4 -1 0 0 0 0 -2 -1 0 -1 0 0 0 0 0 0 0 0 0 0 -1 0 0 0 0 0 0 0 0 0 0 0 0 0 0 0 0 0 0 0 0 0 0 0 0 0 0 0 0 0 0 0 0
-5 -4 -2 0 0 0 0 0 0 -1 0 0 0 0 0 0 0 0 0 0 0 0 0 0 0 0 0 0 0 0 0 0 0 0 0 0 0 0 0 0 0 0 0 0 0 0 0 0 0 0 0 0 0 0
-6 -5 -6 0 0 0 0 -1 -1 -1 -15 0 -2 0 0 0 0 0 0 0 0 0 0 0 0 0 0 0 0 0 0 0 0 0 0 0 0 0 0 0 0 0 0 0 0 0 0 0 0 0 0 0 0 0
0 0 -3 -4 0 -2 -1 0 -1 -1 0 0 0 0 0 0 0 0 0 0 0 0 0 0 0 0 0 0 0 0 0 0 0 0 0 0 0 0 0 0 0 0 0 0 0 0 0 0 0 0 0 0 0 0
-11 -2 0 0 0 -1 0 -5 -7 -8 -1 0 -3 0 0 0 0 0 0 0 0 0 0 0 0 0 0 0 0 0 0 0 0 0 0 0 0 0 0 0 0 0 0 0 0 0 0 0 0 0 0 0 0 0
-5 0 0 0 -1 0 -1 -2 -15 0 0 0 0 0 0 0 0 0 0 0 0 0 0 0 0 0 0 0 0 0 0 0 0 0 0 0 0 0 0 0 0 0 0 0 0 0 0 0 0 0 0 0 0 0
0 0 0 0 0 -6 -5 -8 -2 0 0 0 -1 0 0 0 0 0 0 0 0 0 0 0 0 0 0 0 0 0 0 0 0 0 0 0 0 0 0 0 0 0 0 0 0 0 0 0 0 0 0 0 0 0
0 0 -3 -1 0 0 -1 -3 0 0 0 0 0 0 0 0 0 0 0 0 0 0 0 0 0 0 0 0 0 0 0 0 0 0 0 0 0 0 0 0 0 0 0 0 0 0 0 0 0 0 0 0 0 0
-16 -5 -5 -5 0 0 0 0 0 0 0 0 0 0 0 0 0 0 0 0 0 -5 -1 0 0 0 0 0 0 0 0 0 0 0 0 0 0 0 0 0 0 0 0 0 0 0 0 0 0 0 0 0 0 0
-4 -8 -2 -1 -3 0 0 0 0 0 0 0 0 0 0 0 0 0 0 0 0 0 0 0 0 0 0 0 0 0 0 0 0 0 0 0 0 0 0 0 0 0 0 0 0 0 0 0 0 0 0 0 0 0
0 0 0 -1 -1 -1 0 0 0 0 0 0 0 0 0 0 0 0 0 0 0 0 0 0 0 0 0 0 0 0 0 0 0 0 0 0 0 0 0 0 0 0 0 0 0 0 0 0 0 0 0 0 0 0
0 0 0 0 0 0 0 0 0 0 0 0 0 0 0 0 0 0 0 0 0 0 0 0 0 0 0 0 0 0 0 0 0 0 0 0 0 0 0 0 0 0 0 0 0 0 0 0 0 0 0 0 0 0
0 0 0 0 0 0 0 0 0 0 0 0 0 0 0 0 0 0 0 0 0 0 0 0 0 0 0 0 0 0 0 0 0 0 0 0 0 0 0 0 0 0 0 0 0 0 0 0 0 0 0 0 0 0
-4 0 0 0 0 0 0 0 0 0 0 0 0 0 0 0 0 0 0 0 0 0 0 0 0 0 0 0 0 0 0 0 0 0 0 0 0 0 0 0 0 0 0 0 0 0 0 0 0 0 0 0 0 0
0 0 0 0 0 0 0 0 0 0 0 0 0 0 0 0 0 0 0 0 0 0 0 0 0 0 0 0 0 0 0 0 0 0 0 0 0 0 0 0 0 0 0 0 0 0 0 0 0 0 0 0 0 0
0 0 0 0 0 0 0 0 0 0 0 0 0 0 0 0 0 0 0 0 0 0 0 0 0 0 0 0 0 0 0 0 0 0 0 0 0 0 0 0 0 0 0 0 0 0 0 0 0 0 0 0 0 0
0 0 0 0 0 0 0 0 0 0 0 0 0 0 0 0 0 0 0 0 0 0 0 0 0 0 0 0 0 0 0 0 0 0 0 0 0 0 0 0 0 0 0 0 0 0 0 0 0 0 0 0 0 0
0 0 0 0 0 0 0 0 0 0 0 0 0 0 0 0 0 0 0 0 0 0 0 0 0 0 0 0 0 0 0 0 0 -1 0 0 0 0 0 0 0 0 0 0 0 0 0 0 0 0 0 0 0 0
0 0 0 0 0 0 0 0 0 0 0 0 0 0 0 0 0 0 0 0 0 0 0 0 0 0 0 0 0 0 0 0 0 0 0 0 0 0 0 0 0 0 0 0 0 0 0 0 0 0 0 0 0 0
0 0 0 0 0 0 0 0 0 0 0 0 0 0 0 0 0 0 0 0 0 0 0 0 0 0 0 0 0 0 0 0 0 0 0 0 0 0 0 0 0 0 0 0 0 0 0 0 0 0 0 0 0 0
0 0 0 0 0 0 0 0 0 0 0 0 0 0 0 0 0 0 0 0 0 0 0 0 0 0 0 0 0 0 0 0 0 0 0 0 0 0 0 0 0 0 0 0 0 0 0 0 0 0 0 0 0 0
0 0 0 0 0 0 0 0 0 0 0 0 0 0 0 0 0 0 0 0 0 0 0 0 0 0 0 0 0 0 0 0 0 0 0 0 0 0 0 0 0 0 0 0 0 0 0 0 0 0 0 0 0 0
Wind_Speed
25 24 24 26 26 26 29 31 32 29 29 29 28 25 22 20 17 18 18 14 17 19 19 15 14 14 13 11 13 14 15 13 13 13 14 14 14 15 14 15 16 18 20 20 21 20 19 19 14 19 16 16 17 17
25 24 24 25 26 26 27 30 31 28 27 27 27 26 24 22 18 17 19 16 15 20 20 17 17 15 15 14 12 10 16 14 13 13 13 14 13 14 14 14 16 17 19 18 21 20 18 23 18 19 16 15 16 17
24 23 23 23 25 25 25 27 30 28 28 28 25 27 24 23 19 17 19 14 16 21 22 20 18 15 15 14 13 12 11 13 13 14 13 13 12 13 13 14 15 16 18 18 17 18 21 23 24 23 22 21 20 18
25 23 23 22 23 23 23 22 20 26 24 26 27 24 24 21 20 18 19 16 17 20 24 21 17 16 15 15 14 14 14 13 13 13 15 12 13 11 15 15 15 15 15 17 19 20 21 22 23 22 24 24 21 17
25 25 24 23 22 22 21 20 19 18 25 22 24 24 21 20 19 19 19 19 19 21 23 21 20 18 17 16 15 15 12 13 14 14 17 21 19 8 16 19 18 12 15 18 19 16 18 16 16 18 18 15 13 12
23 24 25 23 22 21 20 20 21 19 19 27 21 21 20 15 16 19 26 24 20 19 25 28 20 18 15 13 14 15 14 15 16 17 18 19 19 19 22 20 19 15 17 21 21 17 17 15 17 18 16 13 10 10
23 23 23 24 23 22 20 20 20 21 21 21 23 21 16 13 18 25 25 22 15 18 23 27 26 20 17 16 17 17 17 18 19 21 21 21 20 19 19 27 24 23 9 5 16 17 22 21 20 16 14 11 10 11
22 22 22 22 23 23 22 21 20 21 23 22 23 19 13 13 17 25 21 13 14 20 22 26 25 21 18 21 22 19 18 19 21 22 21 21 19 20 25 11 11 16 18 9 7 12 18 17 15 15 13 11 10 10
23 21 21 21 22 23 23 22 22 22 22 23 22 13 15 20 24 20 13 13 16 19 25 25 27 28 20 21 18 17 16 20 19 22 22 19 21 18 2 7 8 3 8 15 8 9 11 12 11 11 10 9 9 9
23 21 21 21 21 21 23 23 22 23 22 19 16 20 24 20 6 8 19 20 23 27 27 31 23 23 18 17 18 16 18 19 21 20 18 22 27 36 23 11 17 14 6 7 9 10 10 10 9 9 9 9 9 8
24 22 21 21 21 22 22 23 23 22 18 16 19 22 18 9 15 18 21 20 21 26 25 26 24 21 18 17 16 17 17 17 22 19 19 22 25 22 19 20 18 10 8 6 11 13 9 11 7 8 8 8 7 7
26 23 21 21 21 21 21 21 21 20 18 15 14 15 16 19 20 22 24 21 23 28 22 20 21 19 17 16 18 18 20 19 23 14 19 20 18 18 18 18 17 12 8 6 10 12 10 11 7 7 7 7 7 7
23 20 20 21 20 21 21 20 20 17 14 15 15 18 20 22 27 29 30 27 25 21 18 18 17 17 17 17 18 19 21 23 16 21 22 21 20 17 14 13 14 12 10 8 10 11 10 9 7 6 5 6 6 7
20 18 20 21 21 21 20 20 18 18 20 20 21 25 26 25 28 28 27 25 23 21 17 15 14 16 16 17 17 21 21 19 24 27 25 22 19 15 12 12 12 11 10 8 8 8 8 7 6 6 5 5 5 6
21 19 20 21 21 20 20 20 18 17 21 22 21 28 26 21 20 22 23 22 22 18 16 16 17 17 17 18 18 18 21 25 24 25 21 20 17 15 11 11 11 10 8 7 7 6 6 5 5 5 5 6 7 9
21 19 21 20 20 20 20 18 18 19 22 24 24 26 24 24 25 24 23 23 20 19 18 19 20 22 23 20 21 23 23 26 23 19 19 19 18 17 14 12 11 10 8 7 6 5 4 4 4 5 6 8 10 12
14 20 19 17 18 19 18 17 18 21 24 26 27 25 24 23 24 23 20 21 18 19 24 22 26 26 18 25 27 23 25 22 19 19 20 20 21 20 17 13 12 10 8 6 5 5 4 6 7 8 9 11 13 14
19 17 16 15 15 15 16 17 20 22 27 26 28 26 25 25 24 23 22 19 18 21 22 24 22 27 28 30 28 23 20 18 17 18 20 22 23 21 19 16 14 12 10 8 7 6 6 7 8 9 11 13 14 16
17 15 15 13 14 16 18 20 21 24 25 24 26 24 25 28 28 26 24 23 22 22 22 24 27 30 29 22 19 16 17 20 25 26 26 26 25 24 21 18 16 14 12 11 10 10 10 10 12 12 13 14 16 17
15 14 13 11 14 17 20 21 19 23 25 24 24 25 24 25 26 28 29 28 28 29 29 30 31 26 23 22 21 24 27 28 30 33 33 29 26 25 24 21 19 17 16 15 15 15 14 15 16 15 14 14 16 19
17 16 13 13 16 17 19 20 21 21 21 24 24 26 26 25 26 27 28 26 31 34 37 38 42 39 36 37 37 36 36 35 36 33 34 35 33 32 30 27 24 21 20 19 18 17 17 18 17 15 15 16 16 19
15 11 14 16 17 18 21 21 21 18 20 22 21 22 26 29 30 28 25 29 34 34 34 37 41 43 45 44 41 39 39 38 37 36 36 35 36 34 32 29 26 26 24 22 20 20 19 18 16 14 14 15 17 20
11 14 16 17 19 20 22 18 22 23 25 24 22 25 27 27 27 25 31 30 33 33 36 37 39 39 41 43 41 40 38 40 42 42 41 40 38 37 34 32 28 27 26 24 21 19 17 14 14 16 16 17 20 23
14 15 16 18 18 19 16 19 19 20 21 23 25 28 27 27 25 29 34 34 37 36 37 38 36 39 39 39 41 41 38 35 38 37 36 37 38 38 35 34 30 28 26 23 20 19 17 17 16 17 18 20 24 27
14 17 17 16 17 17 19 19 20 21 25 23 25 27 26 24 28 31 34 37 33 31 29 29 31 33 36 38 37 34 30 29 32 35 33 30 32 32 32 31 29 27 23 22 20 18 18 19 18 18 20 23 26 29
19 18 18 18 19 20 20 21 21 22 23 25 25 24 23 23 26 28 25 24 24 26 28 30 31 32 32 30 32 31 29 26 26 29 29 27 27 27 28 28 26 23 17 14 12 12 13 15 17 20 23 25 27 30
17 17 17 17 17 18 20 21 19 20 20 21 21 20 20 22 23 21 20 21 26 30 31 29 26 26 27 27 26 26 25 23 22 24 25 22 21 20 19 19 18 14 5 6 8 11 14 16 18 21 24 26 27 28
16 17 19 18 19 19 21 20 20 21 20 18 17 19 19 18 18 19 20 24 27 28 26 24 23 24 23 22 20 18 18 16 15 13 13 14 14 13 10 8 7 6 6 6 8 10 13 16 19 22 24 27 30 31
15 17 17 17 17 17 18 17 18 18 17 15 17 18 19 18 20 22 22 23 22 18 16 17 19 18 15 14 14 13 14 11 8 8 9 10 9 10 10 9 9 9 10 10 11 13 15 18 21 25 28 30 32 34
17 18 17 16 16 16 16 14 16 17 17 16 17 20 20 20 17 17 19 19 18 18 18 16 16 15 12 14 15 15 14 13 11 10 9 9 9 9 10 10 11 12 12 14 16 18 21 23 25 28 31 34 34 32
19 18 18 18 18 17 17 18 18 17 17 17 15 14 16 16 15 14 17 17 16 15 13 12 13 15 14 12 13 14 14 15 15 14 13 12 11 11 11 12 13 15 17 19 21 24 26 29 31 33 34 33 32 31
19 18 18 20 20 19 19 19 18 17 16 14 12 12 12 13 15 15 17 17 15 15 15 13 13 15 15 14 13 13 13 13 13 13 13 13 12 13 14 16 18 20 23 25 27 28 29 30 32 33 34 33 31 28
20 19 19 19 19 19 20 21 19 19 18 17 17 17 17 17 16 17 17 17 15 14 13 13 13 13 14 14 14 14 13 13 14 14 15 16 16 17 19 22 24 26 27 29 30 31 33 34 34 33 31 30 28 27
Wind_Direction
281 284 284 281 279 286 285 268 241 244 243 243 245 249 255 262 270 275 282 288 291 294 303 320 324 340 359 28 21 36 43 71 90 123 120 118 121 123 127 134 136 142 147 158 167 177 191 207 245 234 248 260 268 275
279 281 285 286 281 284 288 278 243 238 241 242 245 248 251 257 265 273 276 284 294 289 297 310 310 320 330 344 8 46 351 26 67 77 119 113 130 128 132 135 150 145 155 162 166 175 196 174 212 225 254 272 278 283
279 280 283 288 287 280 287 299 247 234 239 243 245 247 250 252 259 270 275 282 289 287 290 296 303 314 320 325 339 353 10 11 16 19 37 51 147 110 148 152 143 157 162 170 181 183 196 202 209 219 236 257 275 287
273 279 283 286 289 283 287 292 290 233 236 244 246 246 248 250 256 265 272 277 284 288 284 293 307 311 314 315 321 327 339 354 352 359 342 28 179 103 195 202 180 169 121 157 191 210 214 220 218 244 237 254 278 295
275 274 279 280 283 286 286 285 292 263 235 245 248 244 245 247 254 266 274 275 278 280 283 292 297 300 308 311 312 318 325 325 326 329 316 278 308 7 256 231 209 143 168 171 209 187 250 277 292 281 287 309 316 322
278 277 272 278 279 282 285 287 280 282 270 240 248 251 246 240 250 267 268 269 271 282 282 274 292 294 304 312 315 316 313 308 308 310 314 315 313 312 262 235 225 167 175 232 247 299 304 321 310 309 318 333 344 343
278 278 277 273 277 277 282 285 287 280 277 267 242 250 248 234 248 258 266 276 266 274 279 274 274 286 292 301 305 305 302 301 300 300 303 305 310 310 315 238 243 269 150 105 307 308 287 296 303 325 333 345 352 346
278 280 280 278 274 275 277 280 287 287 273 274 251 246 246 246 261 260 271 285 273 271 273 268 271 279 285 291 293 299 295 295 295 292 299 302 311 305 298 207 342 325 313 329 334 323 315 326 333 333 341 349 350 347
276 280 283 281 279 274 275 279 280 284 281 273 261 221 256 257 256 261 269 273 278 269 264 266 266 272 280 284 291 296 299 290 299 289 293 304 301 304 145 346 350 22 349 325 340 333 331 330 335 341 347 349 350 350
275 277 282 284 281 281 274 276 279 281 279 279 252 242 251 259 249 265 272 268 265 264 268 264 269 269 277 279 282 290 294 291 289 295 308 296 291 260 230 314 316 325 343 346 337 332 333 331 336 341 342 344 345 350
272 273 278 282 282 281 278 274 277 279 276 271 257 250 258 247 262 263 261 260 261 262 265 263 259 263 269 276 281 285 293 298 289 299 298 302 300 307 320 316 318 320 320 330 329 331 340 336 339 340 342 347 354 359
267 267 274 279 282 279 279 277 277 271 266 267 271 263 247 255 261 256 254 261 262 259 266 263 258 262 270 281 282 287 288 293 289 308 304 308 316 321 324 328 334 344 348 348 338 340 347 344 352 352 353 356 359 1
268 268 273 278 281 281 278 276 275 259 262 260 270 254 251 252 249 249 247 254 257 267 270 265 263 266 272 278 284 285 284 286 302 294 296 303 313 319 328 336 342 345 348 350 345 346 351 358 12 14 13 13 16 4
272 272 274 276 278 281 279 275 277 256 256 252 253 250 248 252 251 254 254 257 264 268 267 264 266 274 276 272 282 281 286 292 289 289 295 307 310 313 324 333 338 340 346 348 351 356 1 6 7 13 16 19 9 356
269 273 275 275 276 278 279 273 273 268 254 250 251 249 253 260 264 263 263 266 267 269 257 263 272 276 274 277 281 283 284 284 290 294 302 306 313 321 326 331 335 341 348 351 354 1 10 23 25 20 11 3 351 345
266 271 271 276 276 279 278 273 270 266 259 252 253 255 260 260 261 266 268 268 269 262 262 270 270 271 269 274 274 275 280 284 297 301 306 312 316 320 324 326 331 336 340 346 352 2 16 16 13 2 355 346 338 333
265 269 274 276 276 280 278 267 267 260 257 252 254 258 261 264 264 265 272 274 275 258 261 269 265 265 277 272 272 277 281 293 301 305 311 314 313 315 320 322 322 324 325 328 335 337 335 332 331 329 324 325 327 327
264 268 272 274 279 282 274 268 264 262 255 258 253 258 260 262 266 270 273 276 277 269 273 271 277 267 269 271 275 280 283 294 306 313 319 320 318 316 314 313 313 310 306 306 307 310 306 304 306 311 320 324 325 324
261 265 266 272 277 277 265 266 266 261 260 265 265 269 267 264 267 270 272 272 277 278 277 279 272 269 269 280 280 283 288 295 299 302 304 309 313 316 316 313 307 301 295 291 293 293 293 294 302 309 313 319 319 324
251 256 263 271 276 271 266 269 276 267 265 266 269 271 274 276 276 272 270 270 270 271 268 265 265 271 279 279 283 286 290 295 298 297 298 302 306 309 310 308 303 296 291 289 289 293 292 296 300 305 307 312 316 320
243 254 259 266 273 274 273 272 270 275 275 270 275 273 276 280 280 280 278 275 268 267 268 268 269 272 276 278 280 282 284 287 288 289 291 293 295 297 299 301 300 294 287 285 282 282 284 287 294 299 301 306 313 321
246 242 261 267 273 275 274 274 275 279 280 280 281 279 276 277 278 282 285 277 274 275 275 276 274 274 274 274 277 279 282 283 285 286 288 289 289 292 293 294 295 292 285 282 279 277 281 286 292 298 300 305 314 319
239 254 264 269 272 273 277 283 274 275 274 277 281 279 279 280 283 291 282 282 283 283 280 279 279 278 278 278 280 281 282 282 282 283 284 284 285 287 288 289 289 288 287 282 279 278 276 282 289 296 299 306 312 317
247 254 263 268 265 274 284 278 280 282 280 276 278 278 281 284 292 286 282 285 287 289 285 281 281 280 281 281 280 282 283 284 284 285 286 286 285 285 286 287 285 283 284 286 276 270 274 285 294 294 298 304 310 314
243 254 268 272 271 278 276 281 282 281 278 282 280 281 287 293 289 287 287 290 293 294 296 294 289 285 282 283 285 286 288 287 286 286 289 289 291 292 290 290 288 285 283 279 274 265 273 287 291 294 299 306 310 314
253 264 270 272 275 277 280 284 282 282 282 283 284 290 294 294 289 289 298 302 303 304 304 302 298 294 290 291 290 290 292 295 292 289 291 292 292 292 291 290 289 288 282 276 264 265 277 289 297 300 305 309 312 314
266 276 285 291 293 291 287 287 290 288 287 287 291 293 294 291 293 300 308 315 312 311 308 305 304 300 296 297 299 299 301 303 300 298 301 303 302 300 297 296 295 301 279 258 273 288 295 300 305 309 312 315 318 319
287 295 292 301 298 297 291 289 286 286 289 296 300 294 296 297 301 308 313 316 308 304 301 299 302 300 301 302 307 313 315 317 320 326 327 323 325 334 341 341 347 354 347 329 320 319 319 319 319 319 321 320 320 322
307 300 301 303 306 304 299 297 294 295 302 304 299 297 297 303 305 304 303 298 296 297 308 323 337 339 354 7 3 4 5 359 354 341 334 334 337 343 343 351 354 359 1 358 348 342 336 331 327 324 324 324 324 323
309 295 304 310 309 305 314 315 305 305 308 315 309 296 291 293 294 294 295 293 288 311 310 307 312 327 353 18 30 30 4 339 332 32 26 9 6 19 22 18 12 6 0 352 343 335 333 333 332 330 327 325 326 328
325 324 301 303 299 303 306 295 290 300 297 294 314 315 283 274 276 304 310 309 295 298 306 325 345 357 357 356 13 42 34 5 11 27 37 39 34 24 15 7 0 354 346 341 337 332 329 327 328 328 328 329 331 331
319 326 323 293 294 293 294 297 298 300 305 305 316 299 294 288 278 301 302 303 313 320 321 333 353 352 354 0 4 7 28 33 24 25 27 22 11 0 353 348 343 339 335 332 330 330 330 330 331 331 329 330 332 334
311 311 311 308 304 298 295 293 293 291 292 291 290 292 290 290 291 294 306 320 322 322 329 344 357 4 8 12 19 21 18 14 10 6 1 357 353 348 342 337 334 332 331 331 331 330 329 328 329 330 332 332 332 332